Weather History for KIWI - May, 2013

Change the Weather History Date:

Monday, May 6, 2013

  Actual Average Record
Temperature  
Mean Temperature 44 °F -  
Max Temperature 60 °F 59 °F 71 °F (2006)
Min Temperature 30 °F 37 °F 30 °F (2005)
Degree Days  
Heating Degree Days 20    
Moisture  
Dew Point 38 °F    
Average Humidity 86    
Maximum Humidity 100    
Minimum Humidity 51    
Precipitation  
Precipitation 0.00 in - - ()
Sea Level Pressure  
Sea Level Pressure 30.25 in    
Wind  
Wind Speed 2 mph (South)    
Max Wind Speed 13 mph    
Max Gust Speed 20 mph    
Visibility 6 miles    
Events Fog    
Averages and records for this station are not official NWS values.
T = Trace of Precipitation, MM = Missing Value Source: NWS Daily Summary

Daily Weather History Graph

Daily Weather History Graph

Search for Another Location

Airport or City:

Trip Planner

Search our weather history database for the weather conditions in past years. The results will help you decide how hot, cold, wet, or windy it might be!

Date:

Astronomy

May. 06, 2013 Rise Set
Actual Time 5:23 AM EDT 7:48 PM EDT
Civil Twilight 4:51 AM EDT 8:20 PM EDT
Nautical Twilight 4:11 AM EDT 9:00 PM EDT
Astronomical Twilight 3:26 AM EDT 9:46 PM EDT
Moon 3:30 AM EDT (5/6) 4:39 PM EDT (5/6)
Length of Visible Light 15h 29m
Length of Day
14h 24m
Waning Crescent, 11% of the Moon is Illuminated
May 6
Waning Crescent
May 9
New
May 18
First Quarter
May 25
Full
May 31
Last Quarter

Hourly Weather History & Observations

Time (EDT) Temp. Windchill Dew Point Humidity Pressure Visibility Wind Dir Wind Speed Gust Speed Precip Events Conditions
12:53 AM 35.1 °F - 30.9 °F 85% 30.29 in 10.0 mi Calm Calm - N/A   Clear
1:53 AM 34.0 °F - 30.0 °F 85% 30.28 in 10.0 mi Calm Calm - N/A   Partly Cloudy
2:24 AM 33.8 °F - 30.2 °F 87% 30.28 in 10.0 mi Calm Calm - N/A   Mostly Cloudy
2:41 AM 33.8 °F - 30.2 °F 87% 30.27 in 10.0 mi Calm Calm - N/A   Scattered Clouds
2:53 AM 33.1 °F - 28.9 °F 85% 30.27 in 10.0 mi Calm Calm - N/A   Mostly Cloudy
3:29 AM 32.0 °F - 28.4 °F 87% 30.27 in 10.0 mi Calm Calm - N/A   Scattered Clouds
3:42 AM 32.0 °F - 28.4 °F 87% 30.27 in 10.0 mi Calm Calm - N/A   Mostly Cloudy
3:51 AM 32.0 °F - 28.4 °F 87% 30.26 in 10.0 mi Calm Calm - N/A   Mostly Cloudy
3:53 AM 32.0 °F - 28.9 °F 88% 30.27 in 10.0 mi Calm Calm - N/A   Overcast
4:33 AM 30.2 °F - 28.4 °F 93% 30.27 in 10.0 mi Calm Calm - N/A   Overcast
4:53 AM 30.9 °F - 28.0 °F 89% 30.27 in 10.0 mi Calm Calm - N/A   Overcast
5:48 AM 30.2 °F - 28.4 °F 93% 30.28 in 6.0 mi Calm Calm - N/A   Overcast
5:53 AM 32.0 °F - 28.9 °F 88% 30.28 in 4.0 mi Calm Calm - N/A   Overcast
6:05 AM 32.0 °F - 30.2 °F 93% 30.28 in 1.2 mi Calm Calm - N/A   Overcast
6:13 AM 32.0 °F - 30.2 °F 93% 30.28 in 0.5 mi Calm Calm - N/A Fog Fog
6:48 AM 35.6 °F - 33.8 °F 93% 30.29 in 1.5 mi Calm Calm - N/A   Overcast
6:50 AM 35.6 °F - 33.8 °F 93% 30.29 in 4.0 mi Calm Calm - N/A   Overcast
6:53 AM 36.0 °F - 35.1 °F 97% 30.29 in 7.0 mi Calm Calm - N/A   Overcast
7:02 AM 37.4 °F - 35.6 °F 93% 30.29 in 1.5 mi Calm Calm - N/A   Overcast
7:09 AM 39.2 °F - 37.4 °F 93% 30.30 in 1.0 mi Calm Calm - N/A   Mist
7:11 AM 39.2 °F - 39.2 °F 100% 30.30 in 1.5 mi Calm Calm - N/A   Overcast
7:14 AM 41.0 °F - 39.2 °F 93% 30.30 in 4.0 mi Calm Calm - N/A   Overcast
7:33 AM 44.6 °F - 42.8 °F 93% 30.30 in - Calm Calm - N/A   Scattered Clouds
7:53 AM 48.0 °F - 44.1 °F 86% 30.30 in 10.0 mi Calm Calm - N/A   Clear
8:53 AM 52.0 °F - 42.1 °F 69% 30.30 in 10.0 mi Variable 3.5 mph - N/A   Clear
9:53 AM 55.0 °F - 39.0 °F 55% 30.30 in 10.0 mi SSW 9.2 mph - N/A   Clear
10:53 AM 57.0 °F - 39.0 °F 51% 30.30 in 10.0 mi SSW 8.1 mph - N/A   Clear
11:53 AM 59.0 °F - 41.0 °F 51% 30.28 in 10.0 mi South 8.1 mph - N/A   Clear
12:53 PM 59.0 °F - 43.0 °F 55% 30.26 in 10.0 mi SSE 9.2 mph - N/A   Clear
1:53 PM 59.0 °F - 43.0 °F 55% 30.25 in 10.0 mi South 9.2 mph - N/A   Clear
2:53 PM 59.0 °F - 42.1 °F 53% 30.24 in 10.0 mi South 12.7 mph 19.6 mph N/A   Clear
3:53 PM 55.9 °F - 43.0 °F 62% 30.24 in 10.0 mi SSE 9.2 mph - N/A   Clear
4:53 PM 54.0 °F - 44.1 °F 69% 30.22 in 10.0 mi SSE 6.9 mph - N/A   Clear
5:53 PM 48.9 °F - 44.1 °F 83% 30.20 in 10.0 mi South 8.1 mph - N/A   Partly Cloudy
6:13 PM 48.2 °F - 44.6 °F 87% 30.20 in 8.0 mi South 10.4 mph - N/A   Mostly Cloudy
6:53 PM 46.9 °F - 44.1 °F 90% 30.20 in 4.0 mi South 4.6 mph - N/A   Overcast
7:01 PM 46.4 °F 44.3 °F 44.6 °F 93% 30.20 in 2.5 mi Variable 4.6 mph - N/A   Overcast
7:16 PM 46.4 °F 43.5 °F 44.6 °F 93% 30.20 in 1.2 mi South 5.8 mph - N/A   Overcast
7:32 PM 46.4 °F 45.2 °F 44.6 °F 93% 30.20 in 2.0 mi SSW 3.5 mph - N/A   Overcast
7:36 PM 46.4 °F 44.3 °F 44.6 °F 93% 30.20 in 1.2 mi SSE 4.6 mph - N/A   Overcast
7:53 PM 46.0 °F 44.8 °F 44.1 °F 93% 30.20 in 0.8 mi SSE 3.5 mph - N/A   Overcast
8:12 PM 44.6 °F - 42.8 °F 93% 30.20 in 1.2 mi Calm Calm - N/A   Overcast
8:21 PM 44.6 °F 43.1 °F 42.8 °F 93% 30.20 in 1.5 mi South 3.5 mph - N/A   Overcast
8:46 PM 44.6 °F 43.1 °F 42.8 °F 93% 30.21 in 2.0 mi South 3.5 mph - N/A   Overcast
8:53 PM 45.0 °F 41.8 °F 43.0 °F 93% 30.21 in 3.0 mi South 5.8 mph - N/A   Overcast
9:53 PM 44.1 °F 41.5 °F 43.0 °F 96% 30.22 in 3.0 mi Variable 4.6 mph - N/A   Overcast
10:00 PM 44.6 °F 42.2 °F 42.8 °F 93% 30.22 in 2.5 mi South 4.6 mph - N/A   Overcast
10:16 PM 44.6 °F 42.2 °F 42.8 °F 93% 30.22 in 1.5 mi SSE 4.6 mph - N/A   Overcast
10:46 PM 44.6 °F 42.2 °F 42.8 °F 93% 30.21 in 1.8 mi South 4.6 mph - N/A   Overcast
10:53 PM 44.1 °F 42.5 °F 42.1 °F 93% 30.21 in 1.5 mi SSW 3.5 mph - N/A   Overcast
11:03 PM 44.6 °F 43.1 °F 42.8 °F 93% 30.21 in 1.2 mi South 3.5 mph - N/A   Overcast
11:15 PM 44.6 °F 43.1 °F 42.8 °F 93% 30.21 in 1.5 mi South 3.5 mph - N/A   Overcast
11:36 PM 44.6 °F 43.1 °F 42.8 °F 93% 30.21 in 1.2 mi South 3.5 mph - N/A   Overcast
11:53 PM 44.1 °F 42.5 °F 42.1 °F 93% 30.21 in 1.0 mi South 3.5 mph - N/A   Mist